This demonstration page uses our WeatherBlox Daily Observations layout. Learn more.

Left ArrowRight Arrow

53.62937, 11.41316

Hourly Observations for June 23, 2015

Temp ( °F °C ) Dew Point ( °F °C ) Humidity (%) Winds ( mph kmh ) Pressure ( in mb ) Visibility ( mi km ) Precip ( " mm )
6:20 am 06:20 Cloudy with Mist and Fog 50 10 50 10 100 100 W 6 9 29.62 1003 2 3 N/A
6:50 am 06:50 Cloudy with Mist and Fog 52 11 50 10 94 94 W 6 9 29.65 1004 2 4 N/A
7:20 am 07:20 Cloudy with Mist and Fog 52 11 50 10 94 94 W 7 11 29.65 1004 2 4 N/A
7:50 am 07:50 Cloudy with Mist and Fog 52 11 52 11 100 100 W 7 11 29.65 1004 3 5 N/A
8:20 am 08:20 Cloudy 54 12 52 11 94 94 W 9 15 29.65 1004 4 7 N/A
8:50 am 08:50 Cloudy 54 12 52 11 94 94 WNW 9 15 29.68 1005 6 9 N/A
9:20 am 09:20 Cloudy 54 12 52 11 94 94 W 8 13 29.68 1005 30 48 N/A
9:50 am 09:50 Cloudy with Drizzle 54 12 52 11 94 94 W 8 13 29.68 1005 4 6 N/A
10:20 am 10:20 Cloudy with Light Rain 54 12 50 10 88 88 W 7 11 29.68 1005 30 48 N/A
10:50 am 10:50 Mostly Cloudy with Light Rain 52 11 50 10 94 94 WSW 9 15 29.71 1006 30 48 N/A
11:20 am 11:20 Mostly Cloudy with Light Rain 54 12 52 11 94 94 WSW 10 17 29.71 1006 30 48 N/A
11:50 am 11:50 Mostly Cloudy with Light Rain 54 12 52 11 94 94 W 8 13 29.71 1006 30 48 N/A
12:20 pm 12:20 Cloudy with Drizzle 55 13 52 11 88 88 W 9 15 29.71 1006 30 48 N/A
12:50 pm 12:50 Mostly Cloudy with Light Rain 57 14 54 12 88 88 W 9 15 29.71 1006 30 48 N/A
1:20 pm 13:20 Mostly Cloudy 55 13 54 12 94 94 W 9 15 29.71 1006 30 48 N/A
1:50 pm 13:50 Cloudy 59 15 50 10 72 72 W 14 22 29.74 1007 30 48 N/A
2:20 pm 14:20 Partly Cloudy 59 15 50 10 72 72 W 12 19 29.74 1007 30 48 N/A
2:50 pm 14:50 Mostly Sunny 59 15 50 10 72 72 W 10 17 29.74 1007 30 48 N/A
3:20 pm 15:20 Partly Cloudy 63 17 50 10 64 64 W 13 20 29.74 1007 30 48 N/A
3:50 pm 15:50 Partly Cloudy 61 16 50 10 68 68 W 13 20 29.74 1007 30 48 N/A
4:20 pm 16:20 Partly Cloudy 61 16 50 10 68 68 W 13 20 29.74 1007 30 48 N/A
4:50 pm 16:50 Mostly Sunny 61 16 48 9 63 63 WSW 13 20 29.77 1008 30 48 N/A
5:20 pm 17:20 Mostly Sunny 61 16 52 11 72 72 SW 12 19 29.77 1008 30 48 N/A
5:50 pm 17:50 Partly Cloudy 63 17 50 10 64 64 SW 12 19 29.77 1008 30 48 N/A
6:20 pm 18:20 Mostly Cloudy 61 16 50 10 68 68 SW 16 26 29.77 1008 30 48 N/A
6:50 pm 18:50 Mostly Cloudy 64 18 50 10 60 60 WSW 14 22 29.77 1008 30 48 N/A

Powered by AerisWeather